Flag for U.S.A. Weather past 2 weeks in Bridgeport, Connecticut, U.S.A.

Now
54 °F

Overcast.


Feels Like: 54 °F
Forecast: 52 / 72 °F
Wind: 3 mph from West

Location: Sikorsky Memorial Airport

Current Time: May 22, 2015 at 5:38:11 AM

Latest Report: May 22, 2015 at 4:52 AM


Visibility: 10 mi

Pressure: 29.85 "Hg

Humidity: 77%

Dew point: 47 °F

Location of BridgeportLocation

Historic Weather in Bridgeport — Graph

°F

Bridgeport temperature yesterday

Maximum temperature yesterday: 63 °F (at 2:52 PM)
Minimum temperature yesterday: 50 °F (at 3:52 AM)
Average temperature yesterday: 55 °F

Past Weeks' High & Low Weather Summary

 TemperatureHumidityPressure
High81 °F (May 12, 1:52 PM)100% (May 8, 4:52 AM)30.38 "Hg (May 8, 4:52 AM)
Low48 °F (May 7, 4:52 AM)27% (May 14, 10:52 AM)29.72 "Hg (May 12, 6:52 PM)
Average61 °F72%30.10 "Hg
* Reported May 7 3:52 AM — May 22 3:52 AM, Bridgeport, Weather by CustomWeather, © 2015

Note: Actual official high and low records may vary slightly from our data, if they occured in-between our weather recording intervals... More about our weather records

Advertising

Bridgeport weather history for previous 24 hours

 ConditionsComfort  
Time TempWeatherWind HumidityBarometerVisibility
3:52 AM
Fri, May 22
54 °FOvercast.6 mph77%29.84 "Hg10 mi
2:52 AM53 °FOvercast.6 mph80%29.85 "Hg10 mi
1:52 AM54 °FOvercast.5 mph72%29.86 "Hg10 mi
12:52 AM54 °FMostly cloudy.5 mph74%29.87 "Hg10 mi
11:52 PM
Thu, May 21
53 °FPassing clouds.5 mph74%29.88 "Hg10 mi
10:52 PM54 °FOvercast.6 mph74%29.89 "Hg10 mi
9:52 PM54 °FOvercast.6 mph74%29.92 "Hg10 mi
8:52 PM55 °FOvercast.13 mph74%29.93 "Hg10 mi
7:52 PM56 °FMore clouds than sun.15 mph67%29.92 "Hg10 mi
6:52 PM58 °FOvercast.12 mph60%29.90 "Hg10 mi
5:52 PM59 °FPassing clouds.14 mph54%29.90 "Hg10 mi
4:52 PM61 °FScattered clouds.15 mph50%29.92 "Hg10 mi
3:52 PM61 °FPassing clouds.12 mph38%29.92 "Hg10 mi
2:52 PM63 °FPartly sunny.10 mph35%29.94 "Hg10 mi
1:52 PM62 °FBroken clouds.10 mph34%29.96 "Hg10 mi
12:52 PM59 °FPassing clouds.10 mph51%29.97 "Hg10 mi
11:52 AM58 °FSunny.10 mph51%29.99 "Hg10 mi
10:52 AM56 °FPassing clouds.10 mph58%30.00 "Hg10 mi
9:52 AM56 °FSunny.7 mph53%30.00 "Hg10 mi
8:52 AM54 °FPartly sunny.No wind53%30.01 "Hg10 mi
7:52 AM53 °FPartly sunny.5 mph61%30.02 "Hg10 mi
6:52 AM52 °FPassing clouds.No wind61%30.00 "Hg10 mi
5:52 AM50 °FClear.5 mph68%29.99 "Hg10 mi
Weather by CustomWeather, © 2015

See weather overviewHow to use our weather pages